Showing default

KINEIS-2A, 62932

Orbit data source: Space-Track

KINEIS-2A, 62932 is a French payload satellite in SSO that was launched on Sat, 08 Feb 2025 UTC via an ELECTRON launch vehicle from the Rocket Lab Launch Complex (RLLC). Payload-class satellites include a variety of spacecraft equipped with specific instruments for various scientific and technological missions. These include communications satellites like Starlink; space stations such as the ISS; scientific satellites like the Hubble; Earth observation satellites from companies like Planet Labs, Umbra, and HawkEye 360; GPS; miniature CubeSats for education and research; and military/defense satellites.

Loading next visibility...
Identifier
62932, 2025-028E
Orbit
SSO
Country
Flag of FRFR
Related business
Manufacturer
KINEIS
Mission
Operational Commercial Communications
Bus & Motor
CUBESAT 16U, Unknown motor
Mass
28 kg wet, 28 kg dry
Launch date (UTC)
2025-02-08 (1 year ago)
Launch vehicle
ELECTRON
Launch site
Rocket Lab Launch Complex (RLLC)
Object type
Payload
Rocket body
Debris
Shape & HBR
Box + 2 Pan + 1 Ant, 1.0 m
Radar Cross Section
0.229 m², Medium (>0.1 m² and < 1m²)

Expand to show TLE details & history
Last TLE update: 10 hours ago

TLE from 10 hours ago
0 KINEIS-2A
1 62932U 25028E   26171.42265801  .00000969  00000-0  15741-3 0  9999
2 62932  98.1300 226.8077 0005495 144.3571 215.8005 14.73388905 73082
Epoch: 2026-06-20T10:08Z
TLE epoch observation values (Epoch: 2026-06-20T10:08:37.652Z)
Latitude
0.00006°
Longitude
166.0133°
Altitude
656.409 km
Speed
7.528 km/s
True Right ascension
15h 07m 13s
True Declination
0° 00' 00"
Sunlit
Object was in full shadow at epoch
Visualization orbit readout
Latitude
Unknown
Longitude
Unknown
Altitude
Unknown
Speed
Unknown
Apparent Right ascension
Unknown
Apparent Declination
Unknown
Sunlit
N/A
Visualization observer readout
Local Sidereal Time
07:21:45
Azimuth
Unknown
Elevation
Unknown
Doppler factor
Unknown
Orbital elements
Apogee altitude
651.191 km
Perigee altitude
643.47 km
Semi-major axis
7,025.467 km
Eccentricity
0.00055
Inclination
98.13°
RAAN
226.8077°
Arg. of periapsis
144.3571°
True anomaly
215.76369°
Mean anomaly
215.8005°
Eccentric anomaly
215.78209°
Mean motion
3.68579 °/min
Orbital period
97.67 mins
BSTAR
0.00015741
Loading maneuver chart data...
Computing Atmospheric mass density...
Loading historical data...
Loading historical data...
Loading historical data...
Loading historical data...
Loading historical data...
Loading historical data...
Loading historical data...

Documentation

Showing up to 5 results
|